Regional Weather Roundup
Issued by NWS

Home | Current Version | Previous Version | Text Only | Print | Product List | Glossary Off
Versions: 1 2 3 4 5 6 7 8 9 10 11 12 13 14 15 16 17 18 19 20 21 22 23 24 25 26 27 28 29 30 31 32 33 34 35 36 37 38 39 40 41 42 43 44 45 46 47 48 49 50

000
ASUS43 KLOT 030000
RWRIL

ILLINOIS REGIONAL WEATHER ROUNDUP
NATIONAL WEATHER SERVICE CHICAGO/ROMEOVILLE IL
700 PM CDT THU JUL 02 2015

NOTE: "FAIR" INDICATES FEW OR NO CLOUDS BELOW 12,000 FEET WITH NO
SIGNIFICANT WEATHER AND/OR OBSTRUCTIONS TO VISIBILITY.

* THESE STATIONS ARE NOT UNDER NWS QUALITY CONTROL. THEY ALSO MAY NOT
  REPORT WEATHER SUCH AS PRECIPITATION OR FOG.

ILZ001-002-007-009-015-016-024-030100-
NORTHWEST ILLINOIS

CITY           SKY/WX    TMP DP  RH WIND       PRES   REMARKS
MOLINE         CLOUDY    70  58  65 MISG      29.95F
6HR MIN TEMP:  70; 6HR MAX TEMP:  73;

STERLING*      CLOUDY    70  57  64 NE8       29.95F
$$

ILZ003-004-008-010-011-017-018-030100-
NORTH CENTRAL ILLINOIS

CITY           SKY/WX    TMP DP  RH WIND       PRES   REMARKS
ROCKFORD       CLOUDY    71  51  49 NE9       29.98S
6HR MIN TEMP:  70; 6HR MAX TEMP:  74;

$$

ILZ005-006-012>014-019>023-030100-
NORTHEAST ILLINOIS

CITY           SKY/WX    TMP DP  RH WIND       PRES   REMARKS
CHICAGO-OHARE  PTSUNNY   63  52  67 NE8       29.97F
6HR MIN TEMP:  63; 6HR MAX TEMP:  69;

CHICAGO-MIDWAY PTSUNNY   66  54  65 NE12      29.96F
6HR MIN TEMP:  66; 6HR MAX TEMP:  71;

AURORA         PTSUNNY   69  54  58 E9        29.97S
6HR MIN TEMP:  68; 6HR MAX TEMP:  72;

WAUKEGAN       SUNNY     59  50  72 N8        29.99F
6HR MIN TEMP:  59; 6HR MAX TEMP:  65;

DUPAGE AIRPORT MOSUNNY   66  53  63 NE10      29.96F
6HR MIN TEMP:  66; 6HR MAX TEMP:  70;

WHEELING       SUNNY     62  51  67 NE9       29.99F
6HR MIN TEMP:  62; 6HR MAX TEMP:  66;

NORTHERLY ISL    N/A     60  53  77 N15         N/A
$$

LMZ740>746-030100-
SOUTHERN LAKE MICHIGAN

STATION/POSITION SKY/WX   TEMP    WIND        PRES    VSBY  WAVE
                          AIR SEA DIR/SP/G                  HT/PER
                          (F)     (DEG/KT/KT) (MB)    (MI)  (FT/S)
HARRISON CRIB              57     350/ 17/ 19   N/A
BURNHAM HARBOR             61     360/ 13/ 16   N/A
CALUMET HARBOR             60     340/ 13/ 17   N/A
BURNS HARBOR               62      20/ 11/ 15 1015.6S
MICHIGAN CITY              62      20/ 18/ 20   N/A
MICHIGAN CITY 6N           63 64   40/ 16/ 21   N/A           5/ 4
ST. JOSEPH                 61 63                N/A           3/ 4
$$

ILZ025>027-034>036-040-047-049-050-058-095>099-030100-
WEST-CENTRAL ILLINOIS

CITY           SKY/WX    TMP DP  RH WIND       PRES   REMARKS
QUINCY         PTSUNNY   69  59  70 NE8       29.94S
$$

ILZ028>032-037-038-041>044-048-051>054-059>061-030100-
CENTRAL ILLINOIS

CITY           SKY/WX    TMP DP  RH WIND       PRES   REMARKS
DECATUR        CLOUDY    72  62  71 N6        29.90S
PEORIA         CLOUDY    73  58  59 NE6       29.93S
6HR MIN TEMP:  72; 6HR MAX TEMP:  77;

SPRINGFIELD    CLOUDY    74  61  63 N5        29.91S
6HR MIN TEMP:  72; 6HR MAX TEMP:  76;

TAYLORVILLE    NOT AVBL
$$

ILZ033-039-045-046-055>057-062-063-030100-
EAST-CENTRAL ILLINOIS

CITY           SKY/WX    TMP DP  RH WIND       PRES   REMARKS
CHAMPAIGN      PTSUNNY   74  62  66 NE8       29.89F
MATTOON        CLOUDY    74  66  76 N5        29.87F
$$

ILZ079-100>102-030100-
SOUTHWEST ILLINOIS

CITY           SKY/WX    TMP DP  RH WIND       PRES   REMARKS
BELLEVILLE     CLOUDY    75  70  83 N3        29.86S
CAHOKIA*       CLOUDY    76  65  68 N10       29.88R
$$

ILZ064>066-069>071-074>076-080>082-084>086-088>090-092>094-030100-
SOUTH-CENTRAL ILLINOIS

CITY           SKY/WX    TMP DP  RH WIND       PRES   REMARKS
CARBONDALE     CLOUDY    74  68  81 N3        29.86S
6HR MIN TEMP:  74; 6HR MAX TEMP:  80;

MT. VERNON     CLOUDY    73  66  78 CALM      29.87S
$$

ILZ067-068-072-073-078-083-087-091-030100-
SOUTHEAST ILLINOIS

CITY           SKY/WX    TMP DP  RH WIND       PRES   REMARKS
LAWRENCEVILLE  PTSUNNY   76  69  79 N6        29.85S
$$

ABBREVIATIONS USED IN REMARKS
   TC - TEMPERATURE IN CELSIUS
  WCI - WIND CHILL INDEX
   HX - HEAT INDEX
  VSB - VISIBILITY
$$



USA.gov is the U.S. government's official web portal to all federal, state and local government web resources and services.